Weather History for KFFT - November, 2011

Change the Weather History Date:

Sunday, November 13, 2011

  Actual Average Record
Temperature  
Mean Temperature 62 °F 47 °F  
Max Temperature 69 °F 58 °F 76 °F (1949)
Min Temperature 55 °F 37 °F 16 °F (1976)
Degree Days  
Heating Degree Days 3 18  
Month to date heating degree days 191 204  
Since 1 July heating degree days 599 545  
Cooling Degree Days 0 0  
Month to date cooling degree days 0 0  
Year to date cooling degree days 1285 1154  
Growing Degree Days 12 (Base 50)    
Moisture  
Dew Point 45 °F    
Average Humidity 49    
Maximum Humidity 60    
Minimum Humidity 38    
Precipitation  
Precipitation 0.00 in 0.11 in 1.38 in (1935)
Month to date precipitation 0.78 1.49  
Year to date precipitation 54.51 39.37  
Sea Level Pressure  
Sea Level Pressure 29.85 in    
Wind  
Wind Speed 19 mph (SSW)    
Max Wind Speed 30 mph    
Max Gust Speed 40 mph    
Visibility 10 miles    
Events      
T = Trace of Precipitation, MM = Missing Value Source: NWS Daily Summary

Daily Weather History Graph

Daily Weather History Graph

Search for Another Location

Airport or City:

Trip Planner

Search our weather history database for the weather conditions in past years. The results will help you decide how hot, cold, wet, or windy it might be!

Date:

Astronomy

Nov. 13, 2011 Rise Set
Actual Time 7:18 AM EST 5:29 PM EST
Civil Twilight 6:50 AM EST 5:57 PM EST
Nautical Twilight 6:18 AM EST 6:28 PM EST
Astronomical Twilight 5:47 AM EST 6:59 PM EST
Moon 7:38 PM EST (11/13) 9:48 AM EST (11/13)
Length of Visible Light 11h 06m
Length of Day
10h 10m
Waning Gibbous, 93% of the Moon is Illuminated
Nov 13
Waning Gibbous
Nov 18
Last Quarter
Nov 25
New
Dec 2
First Quarter
Dec 10
Full

Hourly Weather History & Observations

Time (EST) Temp. Dew Point Humidity Pressure Visibility Wind Dir Wind Speed Gust Speed Precip Events Conditions
12:53 AM 55.0 °F 30.9 °F 40% 29.97 in 10.0 mi South 15.0 mph 23.0 mph N/A   Clear
1:53 AM 55.0 °F 30.0 °F 38% 29.95 in 10.0 mi South 16.1 mph 23.0 mph N/A   Partly Cloudy
2:53 AM 55.0 °F 30.9 °F 40% 29.94 in 10.0 mi South 15.0 mph 24.2 mph N/A   Mostly Cloudy
3:53 AM 55.0 °F 33.1 °F 43% 29.94 in 10.0 mi SSW 16.1 mph 23.0 mph N/A   Mostly Cloudy
4:53 AM 55.0 °F 35.1 °F 47% 29.94 in 10.0 mi South 17.3 mph 26.5 mph N/A   Mostly Cloudy
5:53 AM 55.0 °F 36.0 °F 49% 29.92 in 10.0 mi South 13.8 mph 21.9 mph N/A   Overcast
6:53 AM 55.9 °F 37.9 °F 51% 29.91 in 10.0 mi South 16.1 mph 26.5 mph N/A   Overcast
7:53 AM 57.0 °F 39.9 °F 53% 29.91 in 10.0 mi SSW 19.6 mph 25.3 mph N/A   Overcast
8:53 AM 57.9 °F 42.1 °F 56% 29.90 in 10.0 mi SSW 17.3 mph 29.9 mph N/A   Overcast
9:53 AM 59.0 °F 44.1 °F 58% 29.88 in 10.0 mi South 16.1 mph 27.6 mph N/A   Mostly Cloudy
10:53 AM 61.0 °F 46.0 °F 58% 29.87 in 10.0 mi South 17.3 mph 26.5 mph N/A   Overcast
11:53 AM 62.1 °F 48.0 °F 60% 29.84 in 10.0 mi SSW 23.0 mph 32.2 mph N/A   Overcast
12:53 PM 64.9 °F 50.0 °F 58% 29.81 in 10.0 mi SSW 24.2 mph 32.2 mph N/A   Mostly Cloudy
1:53 PM 66.0 °F 51.1 °F 59% 29.78 in 10.0 mi SSW 23.0 mph 35.7 mph N/A   Overcast
2:53 PM 68.0 °F 51.1 °F 55% 29.76 in 10.0 mi SSW 21.9 mph 33.4 mph N/A   Mostly Cloudy
3:53 PM 69.1 °F 51.1 °F 53% 29.75 in 10.0 mi SSW 24.2 mph 40.3 mph N/A   Scattered Clouds
4:53 PM 68.0 °F 52.0 °F 56% 29.75 in 10.0 mi SSW 19.6 mph 34.5 mph N/A   Clear
5:53 PM 66.9 °F 52.0 °F 59% 29.78 in 10.0 mi SSW 20.7 mph 27.6 mph N/A   Partly Cloudy
6:53 PM 66.9 °F 52.0 °F 59% 29.79 in 10.0 mi South 18.4 mph 28.8 mph N/A   Mostly Cloudy
7:53 PM 66.0 °F 52.0 °F 60% 29.80 in 10.0 mi SSW 17.3 mph 26.5 mph N/A   Scattered Clouds
8:53 PM 66.9 °F 52.0 °F 59% 29.80 in 10.0 mi SSW 23.0 mph 28.8 mph N/A   Clear
9:53 PM 66.0 °F 52.0 °F 60% 29.81 in 10.0 mi SSW 19.6 mph 29.9 mph N/A   Clear
10:53 PM 66.0 °F 52.0 °F 60% 29.82 in 10.0 mi SW 20.7 mph 33.4 mph N/A   Clear
11:53 PM 66.0 °F 52.0 °F 60% 29.83 in 10.0 mi SSW 20.7 mph 31.1 mph N/A   Clear